Location: Canazei
(46.4667°N, 11.7667°E)
Time: 17:11:07
(UTC+00:00)

Cosmos 2221 Rocket - Pass Details

Date: 21 April 2021
Orbit: 621 x 647 km, 82.5° (Epoch: 12 May)

Event Time Altitude Azimuth Distance (km) Brightness Sun altitude
Exits shadow 02:07:25 20° 163° (SSE) 1,471 5.2 -19.6°
Maximum altitude 02:10:19 52° 94° (E) 796 4.3 -19.3°
Drops below altitude 10° 02:14:44 10° 18° (NNE) 2,050 7.1 -18.7°
Sets 02:17:02 0° 14° (NNE) 2,967 8.0 -18.4°
